SPACEMOBILE-006

Last updated on Mon Sep 21 2026 00:02:09 GMT+0000 (Coordinated Universal Time)

1 67232U 25309A 26263.26601378 .00002219 00000+0 12008-3 0 9998 2 67232 52.9962 256.0100 0012243 68.0939 292.1355 15.18918158 41049
UTC large
Height (km)
Speed (km/s)
/
Latitude / Longitude
Inclination (degrees)
Orbital Period (minutes)
Azimuth
Elevation
Range (km)
Doppler Factor

Next 0 passes for location: London (51.5072 / 0.1276)

No passes found over London.
SPACEMOBILE-006